{"data":{"norad_id":57937,"intl_designator":"2023-148C","name":"STARLINK-30400","alt_names":[],"object_type":"PAYLOAD","status":"ACTIVE","operator":null,"country":"US","launch_date":"2023-09-25","launch_site_code":"AFWTR","launch_vehicle":null,"mission":null,"orbit_class":"UNKNOWN","rcs_meters":null,"size_class":null,"mass_kg":null,"dimensions":null,"purposes":["comms"],"wikipedia_slug":null,"has_3d_model":false,"image_url":null,"decayed_at":null,"tle_current":{"epoch":"2026-09-19T11:44:14.871264Z","epoch_age_seconds":221792,"freshness":"STALE","line1":"1 57937U 23148C   26262.48906101 -.00000260  00000+0  34314-5 0  9994","line2":"2 57937  53.1605 200.5501 0001300  90.1278 269.9873 15.34387655168148","mean_motion":15.34387655,"eccentricity":0.00013,"inclination_deg":53.1605,"raan_deg":200.5501,"arg_perigee_deg":90.1278,"mean_anomaly_deg":269.9873,"bstar":3.4314e-6,"rev_number":16814,"period_min":93.848513138618,"perigee_km":461.85061839349,"apogee_km":463.62924639591,"semimajor_km":6840.8769323947,"source":"CELESTRAK","updated_at":"2026-09-21T09:00:33.744404Z"}}}